Location: Boiro
(42.6475°N, 8.8834°W)
Time: 07:09:18
(UTC+02:00)

Max Valier Satellite - Visible Passes

Search period start: 26 June 2022 00:00
Search period end: 06 July 2022 00:00
Orbit: 478 x 490 km, 97.2° (Epoch: 25 June)

Date Brightness Start Highest point End Pass type
(mag) Time Alt. Az. Time Alt. Az. Time Alt. Az.
26 Jun ? 23:31:33 10° WSW 23:33:01 12° W 23:34:30 10° WNW visible
27 Jun ? 23:05:27 10° SSW 23:08:23 23° W 23:11:21 10° NW visible
30 Jun ? 23:26:41 10° WSW 23:28:33 14° W 23:30:26 10° WNW visible
01 Jul ? 23:00:49 10° SSW 23:03:54 26° W 23:07:00 10° NW visible
04 Jul ? 23:21:42 10° SW 23:23:54 15° W 23:26:06 10° NW visible
05 Jul ? 22:56:01 10° SSW 22:59:12 29° W 23:02:26 10° NNW visible
